Regional Weather Roundup
Issued by NWS

Home | Current Version | Previous Version | Graphics & Text | Print | Product List | Glossary On
Versions: 1 2 3 4 5 6 7 8 9 10 11 12 13 14 15 16 17 18 19 20 21 22 23 24 25 26 27 28 29 30 31 32 33 34 35 36 37 38 39 40 41 42 43 44 45 46 47 48 49 50
000
ASUS43 KIND 140509
RWRIN

WEATHER ROUNDUP FOR INDIANA
NATIONAL WEATHER SERVICE INDIANAPOLIS IN
1200 AM EST SUN FEB 14 2016

NOTE: "FAIR" INDICATES FEW OR NO CLOUDS BELOW 12,000 FEET WITH NO
SIGNIFICANT WEATHER AND/OR OBSTRUCTIONS TO VISIBILITY.

* - STATION DOES NOT REPORT WEATHER SUCH AS PRECIPITATION OR FOG.

+ - STATION NOT QUALITY CONTROLLED BY THE NATIONAL WEATHER SERVICE.
    USE DATA WITH CAUTION...ESPECIALLY DEWPOINT AND RELATIVE
    HUMIDITY OBSERVATIONS.

INZ001>003-010>013-019-020-140600-
NORTHWEST INDIANA

CITY           SKY/WX    TMP DP  RH WIND       PRES   REMARKS
GARY /AIRPORT/ CLOUDY    13  -1  53 S5        30.49S WCI   5
KNOX *+        PTCLDY     3   0  85 CALM      30.49S
LA PORTE +     MOCLDY     2  -2  85 CALM      30.48S
MICHIGAN CITY+ MOCLDY     3   0  85 CALM      30.49S
MONTICELLO +   CLOUDY    10  -2  56 E3        30.48S
RENSSELAER +   CLOUDY    14   0  52 E7        30.48S WCI   4
VALPARAISO     CLOUDY     8   0  69 CALM      30.48S

$$

LMZ046-743>745-140600-
SOUTHERN LAKE MICHIGAN

STATION/POSITION TIME  TEMP    WIND        PRES    WAVE
                       AIR SEA DIR/SP/G            HT
                 (UTC) (F)     (DEG/KT/KT) (MB)    (FT)
BURNS HARBOR     0400   11     180/  6/  8 1032.8S
MICHIGAN CITY    0400    9     130/  7/  8   N/A

$$

INZ004-005-014>016-021>024-140600-
NORTH CENTRAL INDIANA

CITY           SKY/WX    TMP DP  RH WIND       PRES   REMARKS
GOSHEN         CLOUDY     9   2  73 CALM      30.47S
LOGANSPORT +   CLOUDY     9   0  66 E5        30.49S WCI   0
PERU/GRISSOM   CLOUDY     8   0  69 E3        30.46F
ROCHESTER +    CLOUDY     3  -6  66 CALM      30.48F
SOUTH BEND     CLOUDY     7   1  76 CALM      30.48S
WARSAW +       CLOUDY     7   1  78 CALM      30.47F

$$

INZ006>009-017-018-025>027-140600-
NORTHEAST INDIANA

CITY           SKY/WX    TMP DP  RH WIND       PRES   REMARKS
ANGOLA *+      CLOUDY     9   3  78 CALM      30.43S
AUBURN +       CLOUDY     9   3  78 W3        30.47S
FORT WAYNE     CLOUDY     6   0  76 W6        30.49S WCI  -4
HUNTINGTON +   CLOUDY     3  -3  74 CALM      30.48F

$$

INZ028-029-035-036-043>045-051>053-140600-
WEST CENTRAL INDIANA

CITY           SKY/WX    TMP DP  RH WIND       PRES   REMARKS
CRAWFORDSVL +  CLOUDY    10   4  75 CALM      30.46S
GREENCASTLE +  CLOUDY    14  -2  48 CALM      30.46S
LAFAYETTE      CLOUDY    11   4  73 CALM      30.48S
TERRE HAUTE    MOCLDY    17   2  51 E8        30.47F WCI   7

$$

INZ030>032-037>040-046>048-054>057-064-065-140600-
CENTRAL INDIANA

CITY           SKY/WX    TMP DP  RH WIND       PRES   REMARKS
FISHERS *+     CLOUDY    10   3  72 CALM      30.47S
FRANKFORT +    CLOUDY    12  -2  53 E8        30.47F WCI   0
GREENWOOD *+   CLOUDY    14   5  67 E3        30.47F
INDIANAPOLIS   CLOUDY    14   1  56 NE7       30.45F WCI   4
-EAGLE CREEK   CLOUDY    14   2  58 CALM      30.46F
KOKOMO *+      CLOUDY     7   0  72 E3        30.47S
MARION +       CLOUDY     4  -6  60 CALM      30.48S
MT COMFORT *+  CLOUDY    10   3  72 E5        30.46F WCI   2
SHELBYVILLE    CLOUDY    11   2  67 E6        30.47S WCI   1
ZIONSVILLE +   PTCLDY    11   2  67 E6        30.46F WCI   2

$$

INZ033-034-041-042-049-050-058-059-140600-
EAST CENTRAL INDIANA

CITY           SKY/WX    TMP DP  RH WIND       PRES   REMARKS
MUNCIE         CLOUDY     7  -1  70 CALM      30.47F

$$

INZ060-061-067>069-081>083-085>088-140600-
SOUTHWEST INDIANA

CITY           SKY/WX    TMP DP  RH WIND       PRES   REMARKS
EVANSVILLE     CLOUDY    23   3  42 NE9       30.47F WCI  13
HUNTINGBURG *+ CLOUDY    19   3  49 NE7       30.47S WCI  10
WASHINGTON +   PTCLDY    19   1  44 E8        30.47F WCI   9

$$

INZ062-063-066-070>080-084-089>092-140600-
SOUTH CENTRAL AND SOUTHEAST INDIANA

CITY           SKY/WX    TMP DP  RH WIND       PRES   REMARKS
BEDFORD +      MOCLDY    18   5  57 E6        30.46F WCI   9
BLOOMINGTON    CLOUDY    16   1  51 E6        30.45S WCI   7
MADISON *+     MOCLDY    18   3  53 E3        30.48S
NORTH VERNON + CLOUDY    14   9  79 CALM      30.47F
SEYMOUR +      CLOUDY    18   5  57 E3        30.49S

$$




USA.gov is the U.S. government's official web portal to all federal, state and local government web resources and services.